Location: Le Vaud
(46.4779°N, 6.2346°E)
Time: 16:36:23
(UTC+00:00)

ADEOS Rocket - Pass Details

Date: 18 February 2020
Orbit: 859 x 1306 km, 98.7° (Epoch: 30 March)

Event Time Altitude Azimuth Distance (km) Brightness Sun altitude
Rises 05:30:59 0° 166° (SSE) 3,624 6.2 -11.6°
Reaches altitude 10° 05:33:19 10° 167° (SSE) 2,734 5.6 -11.2°
Maximum altitude 05:39:30 83° 256° (WSW) 1,078 3.2 -10.2°
Drops below altitude 10° 05:46:29 10° 345° (NNW) 3,065 5.4 -9.0°
Sets 05:49:14 0° 346° (NNW) 4,092 6.0 -8.5°
